Weather History for Little Rock AFB, AR

Change the Weather History Date:

Monday, December 31, 2012

  Actual Average Record
Temperature  
Mean Temperature 36 °F -  
Max Temperature 39 °F 46 °F 70 °F (2010)
Min Temperature 33 °F 29 °F -1 °F (1983)
Degree Days  
Heating Degree Days 29    
Moisture  
Dew Point 35 °F    
Average Humidity 94    
Maximum Humidity 100    
Minimum Humidity 80    
Precipitation  
Precipitation 0.49 in - - ()
Sea Level Pressure  
Sea Level Pressure 30.14 in    
Wind  
Wind Speed 4 mph (NE)    
Max Wind Speed 12 mph    
Max Gust Speed -    
Visibility 7 miles    
Events Rain    
Averages and records for this station are not official NWS values.
T = Trace of Precipitation, MM = Missing Value Source: NWS Daily Summary

Daily Weather History Graph

Daily Weather History Graph

Search for Another Location

Airport:

Trip Planner

Search our weather history database for the weather conditions in past years. The results will help you decide how hot, cold, wet, or windy it might be!

Date:

Astronomy

Dec. 31, 2012 Rise Set
Actual Time 7:16 AM CST 5:07 PM CST
Civil Twilight 6:48 AM CST 5:35 PM CST
Nautical Twilight 6:16 AM CST 6:07 PM CST
Astronomical Twilight 5:45 AM CST 6:38 PM CST
Moon 8:29 PM CST (12/31) 9:05 AM CST (12/31)
Length of Visible Light 10h 47m
Length of Day
9h 51m
Waning Gibbous, 90% of the Moon is Illuminated
Dec 31
Waning Gibbous
Jan 4
Last Quarter
Jan 11
New
Jan 18
First Quarter
Jan 26
Full

Hourly Weather History & Observations

Time (CST) Temp. Windchill Dew Point Humidity Pressure Visibility Wind Dir Wind Speed Gust Speed Precip Events Conditions
12:55 AM 33.8 °F 30.8 °F 30.2 °F 87% 30.31 in 10.0 mi South 3.5 mph - N/A   Mostly Cloudy
1:08 AM 35.6 °F 31.7 °F 30.2 °F 81% 30.31 in 10.0 mi South 4.6 mph - N/A Rain Light Rain
1:17 AM 35.6 °F 32.8 °F 30.2 °F 81% 30.31 in 10.0 mi South 3.5 mph - N/A   Partly Cloudy
1:22 AM 35.6 °F 31.7 °F 30.2 °F 81% 30.32 in 10.0 mi SSW 4.6 mph - N/A   Light Drizzle
1:42 AM 35.6 °F 32.8 °F 30.2 °F 81% 30.31 in 10.0 mi South 3.5 mph - N/A   Mostly Cloudy
1:55 AM 35.6 °F - 30.0 °F 80% 30.31 in 10.0 mi Calm Calm - 0.00 in   Mostly Cloudy
2:55 AM 34.9 °F - 32.0 °F 89% 30.31 in 10.0 mi Calm Calm - N/A   Overcast
3:55 AM 34.7 °F - 32.0 °F 90% 30.30 in 10.0 mi Calm Calm - N/A   Mostly Cloudy
4:55 AM 34.0 °F - 31.8 °F 92% 30.29 in 10.0 mi Calm Calm - N/A   Partly Cloudy
5:55 AM 34.2 °F - 31.5 °F 90% 30.29 in 10.0 mi Calm Calm - N/A   Overcast
6:31 AM 33.8 °F - 32.0 °F 93% 30.29 in 10.0 mi Calm Calm - N/A Rain Light Rain
6:43 AM 33.8 °F 30.8 °F 32.0 °F 93% 30.28 in 10.0 mi NE 3.5 mph - N/A   Overcast
6:55 AM 34.3 °F 31.4 °F 31.6 °F 90% 30.29 in 10.0 mi NE 3.5 mph - 0.00 in   Overcast
6:58 AM 33.8 °F 30.8 °F 32.0 °F 93% 30.28 in 10.0 mi NE 3.5 mph - N/A Rain Light Rain
7:19 AM 33.8 °F - 32.0 °F 93% 30.27 in 10.0 mi Calm Calm - N/A   Mostly Cloudy
7:55 AM 35.1 °F 31.0 °F 32.2 °F 89% 30.25 in 10.0 mi East 4.6 mph - 0.00 in   Mostly Cloudy
8:22 AM 35.6 °F 31.7 °F 32.0 °F 87% 30.25 in 10.0 mi ENE 4.6 mph - N/A   Overcast
8:37 AM 35.6 °F 32.8 °F 32.0 °F 87% 30.24 in 10.0 mi ESE 3.5 mph - N/A   Overcast
8:55 AM 36.0 °F 32.1 °F 32.0 °F 86% 30.24 in 10.0 mi ESE 4.6 mph - 0.00 in Rain Light Rain
9:55 AM 36.5 °F - 33.6 °F 89% 30.23 in 10.0 mi Calm Calm - 0.01 in Rain Light Rain
10:55 AM 36.3 °F 33.7 °F 34.5 °F 93% 30.25 in 7.0 mi North 3.5 mph - 0.02 in Rain Light Rain
11:55 AM 36.3 °F 30.8 °F 35.1 °F 95% 30.15 in 5.0 mi ENE 6.9 mph - 0.07 in Rain Light Rain
12:55 PM 37.2 °F 32.6 °F 35.6 °F 94% 30.12 in 5.0 mi East 5.8 mph - 0.03 in Rain Light Rain
1:32 PM 37.4 °F 34.9 °F 35.6 °F 93% 30.09 in 6.0 mi East 3.5 mph - N/A Rain Light Rain
1:49 PM 37.4 °F - 35.6 °F 93% 30.08 in 7.0 mi Calm Calm - N/A Rain Light Rain
1:55 PM 38.3 °F 34.8 °F 36.5 °F 93% 30.07 in 6.0 mi East 4.6 mph - 0.04 in Rain Light Rain
2:38 PM 39.2 °F - 37.4 °F 93% 30.05 in 10.0 mi Calm Calm - N/A   Overcast
2:55 PM 38.5 °F 36.1 °F 36.9 °F 94% 30.04 in 10.0 mi East 3.5 mph - 0.02 in   Overcast
3:47 PM 39.2 °F - 37.4 °F 93% 30.02 in 2.5 mi Calm Calm - N/A Rain Light Rain
3:55 PM 38.5 °F 36.1 °F 37.4 °F 96% 30.02 in 3.0 mi NE 3.5 mph - 0.02 in Rain Light Rain
4:38 PM 37.4 °F 32.1 °F 37.4 °F 100% 30.04 in 1.2 mi NNW 6.9 mph - N/A Rain Heavy Rain
4:47 PM 37.4 °F 32.8 °F 37.4 °F 100% 30.05 in 1.5 mi NW 5.8 mph - N/A Rain Light Rain
4:49 PM 37.4 °F 32.8 °F 37.4 °F 100% 30.05 in 2.0 mi NW 5.8 mph - N/A Rain Light Rain
4:50 PM 37.4 °F 32.1 °F 37.4 °F 100% 30.05 in 2.0 mi NW 6.9 mph - N/A Rain Light Rain
4:55 PM 38.1 °F 30.7 °F 37.4 °F 97% 30.07 in 3.0 mi WNW 11.5 mph - 0.15 in Rain Light Rain
4:58 PM 37.4 °F 32.1 °F 37.4 °F 100% 30.07 in 2.5 mi NW 6.9 mph - N/A Rain Light Rain
5:00 PM 37.4 °F 31.4 °F 37.4 °F 100% 30.08 in 2.0 mi WNW 8.1 mph - N/A Rain Rain
5:04 PM 39.2 °F 33.6 °F 37.4 °F 93% 30.08 in 1.8 mi WNW 8.1 mph - N/A Rain Light Rain
5:08 PM 39.2 °F 33.0 °F 37.4 °F 93% 30.09 in 2.5 mi WNW 9.2 mph - N/A Rain Light Rain
5:11 PM 39.2 °F 33.6 °F 37.4 °F 93% 30.09 in 3.0 mi WNW 8.1 mph - N/A Rain Rain
5:48 PM 37.4 °F 32.1 °F 37.4 °F 100% 30.08 in 9.0 mi North 6.9 mph - N/A Rain Light Rain
5:55 PM 37.6 °F 32.3 °F 36.9 °F 97% 30.08 in 6.0 mi North 6.9 mph - 0.09 in Rain Light Rain
5:56 PM 37.4 °F 32.8 °F 37.4 °F 100% 30.08 in 6.0 mi North 5.8 mph - N/A Rain Light Rain
6:09 PM 37.4 °F 33.8 °F 35.6 °F 93% 30.08 in 6.0 mi NNE 4.6 mph - N/A Rain Light Rain
6:12 PM 37.4 °F 32.8 °F 35.6 °F 93% 30.08 in 6.0 mi North 5.8 mph - N/A Rain Light Rain
6:25 PM 37.4 °F 32.8 °F 37.4 °F 100% 30.07 in 4.0 mi ENE 5.8 mph - N/A Rain Light Rain
6:45 PM 37.4 °F 32.8 °F 37.4 °F 100% 30.06 in 5.0 mi ENE 5.8 mph - N/A   Light Drizzle
6:49 PM 37.4 °F 32.8 °F 37.4 °F 100% 30.06 in 7.0 mi ENE 5.8 mph - N/A   Overcast
6:55 PM 37.6 °F 34.0 °F 36.9 °F 97% 30.06 in 7.0 mi ENE 4.6 mph - 0.03 in   Overcast
7:04 PM 37.4 °F 33.8 °F 37.4 °F 100% 30.06 in 9.0 mi ENE 4.6 mph - N/A   Overcast
7:23 PM 37.4 °F 32.8 °F 37.4 °F 100% 30.06 in 9.0 mi ENE 5.8 mph - N/A   Overcast
7:27 PM 37.4 °F 32.8 °F 37.4 °F 100% 30.06 in 9.0 mi ENE 5.8 mph - N/A   Overcast
7:38 PM 37.4 °F 32.8 °F 37.4 °F 100% 30.06 in 9.0 mi ENE 5.8 mph - N/A   Overcast
7:43 PM 37.4 °F 32.8 °F 37.4 °F 100% 30.06 in 8.0 mi ENE 5.8 mph - N/A   Overcast
7:55 PM 37.4 °F 32.8 °F 36.9 °F 98% 30.06 in 8.0 mi ENE 5.8 mph - N/A   Overcast
7:57 PM 37.4 °F 32.8 °F 37.4 °F 100% 30.05 in 7.0 mi ENE 5.8 mph - N/A Rain Light Rain
8:18 PM 37.4 °F 33.8 °F 37.4 °F 100% 30.06 in 6.0 mi NE 4.6 mph - N/A   Overcast
8:55 PM 37.2 °F 32.6 °F 36.7 °F 98% 30.04 in 6.0 mi ENE 5.8 mph - 0.01 in   Overcast
9:55 PM 37.0 °F - 36.5 °F 98% 30.05 in 6.0 mi Calm Calm - N/A   Overcast
10:55 PM 37.0 °F - 36.9 °F 99% 30.06 in 5.0 mi Calm Calm - N/A   Overcast
11:43 PM 37.4 °F 34.9 °F 37.4 °F 100% 30.06 in 6.0 mi NW 3.5 mph - N/A   Overcast
11:55 PM 37.0 °F - 36.9 °F 99% 30.07 in 7.0 mi Calm Calm - N/A   Overcast